Location: Brotuna
(46.2000°N, 22.6000°E)
Time: 19:25:02
(UTC+00:00)

Cosmos 468 Rocket - Pass Details

Date: 09 April 2020
Orbit: 745 x 779 km, 74.0° (Epoch: 02 June)

Event Time Altitude Azimuth Distance (km) Brightness Sun altitude
Rises 18:53:15 0° 341° (NNW) 3,218 8.1 -17.4°
Reaches altitude 10° 18:55:41 10° 346° (NNW) 2,284 7.1 -17.7°
Maximum altitude 19:00:45 55° 64° (ENE) 900 4.1 -18.5°
Enters shadow 19:02:34 36° 121° (ESE) 1,168 4.4 -18.7°
